Weather History for Millinocket, ME

Change the Weather History Date:

Tuesday, January 7, 2014

  Actual Average Record
Temperature  
Mean Temperature 17 °F 15 °F  
Max Temperature 27 °F 24 °F 51 °F (1946)
Min Temperature 7 °F 5 °F -24 °F (1945)
Degree Days  
Heating Degree Days 48 50  
Month to date heating degree days 404 346  
Since 1 July heating degree days 3560 3511  
Cooling Degree Days 0 0  
Month to date cooling degree days 0 0  
Year to date cooling degree days 0 0  
Moisture  
Dew Point -2 °F    
Average Humidity 52    
Maximum Humidity 63    
Minimum Humidity 41    
Precipitation  
Precipitation T in 0.12 in 0.77 in (1938)
Month to date precipitation 1.43 0.91  
Year to date precipitation 1.43 0.91  
Sea Level Pressure  
Sea Level Pressure 29.60 in    
Wind  
Wind Speed 13 mph (West)    
Max Wind Speed 24 mph    
Max Gust Speed 40 mph    
Visibility 9 miles    
Events Snow    
T = Trace of Precipitation, MM = Missing Value Source: NWS Daily Summary

Daily Weather History Graph

Daily Weather History Graph

Search for Another Location

Airport:

Trip Planner

Search our weather history database for the weather conditions in past years. The results will help you decide how hot, cold, wet, or windy it might be!

Date:

Astronomy

Jan. 07, 2014 Rise Set
Actual Time 7:14 AM EST 4:07 PM EST
Civil Twilight 6:41 AM EST 4:41 PM EST
Nautical Twilight 6:03 AM EST 5:18 PM EST
Astronomical Twilight 5:27 AM EST 5:54 PM EST
Moon 10:38 AM EST (1/7) No Moon Set
Length of Visible Light 10h 00m
Length of Day
8h 52m
Waxing Crescent, 45% of the Moon is Illuminated
Jan 7
Waxing Crescent
Jan 7
First Quarter
Jan 15
Full
Jan 24
Last Quarter
Jan 30
New

Hourly Weather History & Observations

Time (EST) Temp. Windchill Dew Point Humidity Pressure Visibility Wind Dir Wind Speed Gust Speed Precip Events Conditions
12:53 AM 24.1 °F 12.0 °F 10.9 °F 57% 29.28 in 10.0 mi West 13.8 mph 25.3 mph N/A   Clear
1:53 AM 21.9 °F 8.7 °F 9.0 °F 58% 29.32 in 10.0 mi West 15.0 mph 29.9 mph N/A   Clear
2:53 AM 21.0 °F 7.1 °F 5.0 °F 50% 29.35 in 10.0 mi West 16.1 mph 28.8 mph N/A   Clear
3:53 AM 19.9 °F 7.3 °F 3.9 °F 50% 29.38 in 10.0 mi West 12.7 mph 26.5 mph N/A   Clear
4:53 AM 18.0 °F 4.2 °F 3.0 °F 52% 29.41 in 10.0 mi West 13.8 mph 24.2 mph N/A   Partly Cloudy
5:53 AM 16.0 °F 2.3 °F 1.9 °F 54% 29.45 in 10.0 mi West 12.7 mph 26.5 mph N/A   Clear
6:53 AM 15.1 °F 3.3 °F 1.9 °F 56% 29.47 in 10.0 mi West 9.2 mph - N/A   Clear
7:53 AM 14.0 °F 1.2 °F 6.1 °F 71% 29.50 in 1.8 mi West 10.4 mph - 0.00 in Snow Light Snow
8:02 AM 14.0 °F 2.0 °F 7.0 °F 74% 29.47 in 2.0 mi West 9.2 mph - 0.00 in Snow Light Snow
8:13 AM 14.0 °F 2.9 °F 3.9 °F 64% 29.47 in 7.0 mi West 8.1 mph 17.3 mph 0.00 in Snow Light Snow
8:22 AM 14.0 °F 1.2 °F 3.0 °F 62% 29.48 in 10.0 mi West 10.4 mph 19.6 mph 0.00 in   Overcast
8:53 AM 14.0 °F 0.5 °F -0.0 °F 54% 29.53 in 10.0 mi West 11.5 mph 25.3 mph 0.00 in   Overcast
9:53 AM 12.9 °F -3.9 °F 1.9 °F 62% 29.55 in 10.0 mi WNW 17.3 mph 26.5 mph 0.00 in   Overcast
10:53 AM 12.0 °F -2.0 °F -2.9 °F 51% 29.57 in 10.0 mi West 11.5 mph 23.0 mph 0.00 in   Overcast
11:53 AM 10.0 °F -10.0 °F -9.0 °F 42% 29.58 in 10.0 mi West 23.0 mph 39.1 mph 0.00 in   Scattered Clouds
12:53 PM 9.0 °F -9.0 °F -9.9 °F 42% 29.62 in 10.0 mi West 17.3 mph 33.4 mph N/A   Overcast
1:53 PM 8.1 °F -8.4 °F -7.1 °F 50% 29.67 in 10.0 mi West 13.8 mph 31.1 mph N/A   Overcast
2:53 PM 8.1 °F -10.7 °F -8.0 °F 48% 29.70 in 10.0 mi West 18.4 mph 29.9 mph N/A   Overcast
3:53 PM 8.1 °F -9.6 °F -9.0 °F 46% 29.72 in 10.0 mi West 16.1 mph 34.5 mph N/A   Mostly Cloudy
4:53 PM 9.0 °F -7.9 °F -9.0 °F 44% 29.74 in 10.0 mi West 15.0 mph 28.8 mph N/A   Partly Cloudy
5:53 PM 9.0 °F -7.9 °F -8.0 °F 46% 29.76 in 10.0 mi West 15.0 mph 29.9 mph N/A   Mostly Cloudy
6:53 PM 9.0 °F -9.0 °F -9.0 °F 44% 29.80 in 10.0 mi WSW 17.3 mph 27.6 mph N/A   Overcast
7:53 PM 8.1 °F -5.3 °F -2.0 °F 64% 29.83 in 10.0 mi WSW 9.2 mph 21.9 mph N/A   Overcast
8:53 PM 8.1 °F -5.3 °F -7.1 °F 50% 29.85 in 10.0 mi WSW 9.2 mph - N/A   Overcast
9:53 PM 8.1 °F -3.2 °F -8.0 °F 48% 29.87 in 10.0 mi Variable 6.9 mph 20.7 mph N/A   Overcast
10:53 PM 8.1 °F -2.0 °F -9.0 °F 46% 29.88 in 10.0 mi Variable 5.8 mph - N/A   Mostly Cloudy
11:53 PM 8.1 °F -4.3 °F -4.0 °F 58% 29.90 in 10.0 mi West 8.1 mph - N/A   Overcast